Location: Baia Mare
(47.6567°N, 23.5850°E)
Time: 21:49:36
(UTC+02:00)

ISS - Pass Details

Date: 05 February 2020
Orbit: 417 x 420 km, 51.6° (Epoch: 26 October)

Event Time Altitude Azimuth Distance (km) Brightness Sun altitude
Rises 18:03:34 0° 293° (WNW) 2,376 0.9 -5.8°
Reaches altitude 10° 18:05:40 10° 295° (WNW) 1,507 -0.1 -6.2°
Maximum altitude 18:09:03 78° 22° (NNE) 434 -3.8 -6.7°
Drops below altitude 10° 18:12:25 10° 109° (ESE) 1,498 -1.4 -7.3°
Enters shadow 18:13:19 - 110° (ESE) 1,864 -1.0 -7.4°
